TimeEDT,TemperatureF,Dew PointF,Humidity,Sea Level PressureIn,VisibilityMPH,Wind Direction,Wind SpeedMPH,Gust SpeedMPH,PrecipitationIn,Events,Conditions,WindDirDegrees,DateUTC
12:53 AM,72.0,68.0,87,30.10,10.0,East,5.8,-,N/A,,Overcast,100,2012-03-23 04:53:00
1:53 AM,72.0,66.0,81,30.09,10.0,ESE,5.8,-,N/A,,Overcast,120,2012-03-23 05:53:00
2:53 AM,72.0,68.0,87,30.09,10.0,ENE,5.8,-,0.00,,Overcast,70,2012-03-23 06:53:00
3:53 AM,71.1,66.9,87,30.07,10.0,ESE,6.9,-,N/A,,Overcast,120,2012-03-23 07:53:00
4:53 AM,70.0,66.0,87,30.07,10.0,ESE,5.8,-,N/A,,Overcast,110,2012-03-23 08:53:00
5:53 AM,69.1,64.9,87,30.08,10.0,East,4.6,-,N/A,,Mostly Cloudy,100,2012-03-23 09:53:00
6:53 AM,69.1,64.9,87,30.09,10.0,East,3.5,-,N/A,,Mostly Cloudy,90,2012-03-23 10:53:00
7:53 AM,68.0,64.9,90,30.11,10.0,ESE,4.6,-,N/A,,Clear,110,2012-03-23 11:53:00
8:53 AM,70.0,66.0,87,30.12,10.0,SE,9.2,-,N/A,,Overcast,130,2012-03-23 12:53:00
9:53 AM,75.2,66.2,73,30.12,10.0,SE,11.5,-,N/A,,Clear,140,2012-03-23 13:53:00
10:53 AM,79.0,66.0,64,30.12,10.0,SSE,9.2,-,N/A,,Partly Cloudy,150,2012-03-23 14:53:00
11:53 AM,80.1,66.9,64,30.12,10.0,SW,10.4,-,N/A,,Scattered Clouds,230,2012-03-23 15:53:00
12:53 PM,81.0,66.0,60,30.10,10.0,SSW,12.7,-,N/A,,Partly Cloudy,210,2012-03-23 16:53:00
1:53 PM,81.0,66.9,62,30.09,10.0,SW,12.7,-,N/A,,Clear,220,2012-03-23 17:53:00
2:53 PM,79.0,66.9,66,30.06,10.0,SW,10.4,-,N/A,,Clear,230,2012-03-23 18:53:00
3:53 PM,79.0,66.9,66,30.04,10.0,SW,10.4,-,N/A,,Clear,230,2012-03-23 19:53:00
4:53 PM,79.0,68.0,69,30.03,10.0,WSW,10.4,-,N/A,,Partly Cloudy,250,2012-03-23 20:53:00
5:53 PM,79.0,68.0,69,30.03,10.0,West,11.5,-,N/A,,Clear,270,2012-03-23 21:53:00
6:53 PM,77.0,68.0,74,30.02,10.0,West,8.1,-,N/A,,Clear,270,2012-03-23 22:53:00
7:53 PM,75.0,68.0,79,30.03,10.0,West,8.1,-,N/A,,Clear,280,2012-03-23 23:53:00
8:53 PM,75.0,68.0,79,30.04,10.0,West,8.1,-,N/A,,Clear,270,2012-03-24 00:53:00
9:53 PM,73.9,68.0,82,30.04,10.0,West,4.6,-,N/A,,Clear,280,2012-03-24 01:53:00
10:53 PM,73.0,68.0,84,30.04,10.0,Calm,Calm,-,N/A,,Clear,0,2012-03-24 02:53:00
11:53 PM,70.0,66.9,90,30.04,10.0,Calm,Calm,-,N/A,,Clear,0,2012-03-24 03:53:00